TimeMDT,TemperatureF,Dew PointF,Humidity,Sea Level PressureIn,VisibilityMPH,Wind Direction,Wind SpeedMPH,Gust SpeedMPH,PrecipitationIn,Events,Conditions,WindDirDegrees,DateUTC
12:18 AM,35.6,33.8,93,30.15,10.0,SW,4.6,-,N/A,,Overcast,220,2012-11-03 06:18:00
12:27 AM,35.6,33.8,93,30.15,10.0,Calm,Calm,-,N/A,,Overcast,0,2012-11-03 06:27:00
12:53 AM,36.0,33.1,89,30.19,10.0,Calm,Calm,-,N/A,,Overcast,0,2012-11-03 06:53:00
1:29 AM,35.6,33.8,93,30.15,10.0,Calm,Calm,-,N/A,,Overcast,0,2012-11-03 07:29:00
1:53 AM,35.1,33.1,92,30.18,10.0,SSE,3.5,-,N/A,,Overcast,150,2012-11-03 07:53:00
2:53 AM,35.1,33.1,92,30.18,10.0,Calm,Calm,-,N/A,,Overcast,0,2012-11-03 08:53:00
3:53 AM,34.0,32.0,92,30.19,10.0,Calm,Calm,-,N/A,,Mostly Cloudy,0,2012-11-03 09:53:00
4:53 AM,32.0,30.0,92,30.19,10.0,NNE,3.5,-,N/A,,Scattered Clouds,20,2012-11-03 10:53:00
5:53 AM,33.1,32.0,96,30.18,10.0,SE,3.5,-,N/A,,Overcast,140,2012-11-03 11:53:00
6:53 AM,33.1,32.0,96,30.19,7.0,NNE,4.6,-,N/A,,Overcast,20,2012-11-03 12:53:00
7:27 AM,33.8,32.0,93,30.14,7.0,NE,3.5,-,N/A,,Overcast,40,2012-11-03 13:27:00
7:53 AM,32.0,30.9,96,30.21,6.0,NE,3.5,-,N/A,,Mostly Cloudy,40,2012-11-03 13:53:00
8:53 AM,33.1,30.9,92,30.21,7.0,NNE,3.5,-,N/A,,Mostly Cloudy,20,2012-11-03 14:53:00
9:53 AM,37.0,34.0,89,30.20,10.0,NNE,6.9,-,N/A,,Clear,30,2012-11-03 15:53:00
10:53 AM,42.1,35.1,76,30.19,10.0,NE,5.8,-,N/A,,Clear,50,2012-11-03 16:53:00
11:53 AM,46.0,36.0,68,30.17,10.0,ENE,9.2,-,N/A,,Clear,70,2012-11-03 17:53:00
12:53 PM,46.9,36.0,66,30.16,10.0,Variable,3.5,-,N/A,,Clear,0,2012-11-03 18:53:00
1:53 PM,50.0,36.0,59,30.14,10.0,Variable,3.5,-,N/A,,Clear,0,2012-11-03 19:53:00
2:53 PM,48.9,36.0,61,30.12,10.0,NE,5.8,-,N/A,,Clear,50,2012-11-03 20:53:00
3:53 PM,48.0,36.0,63,30.13,10.0,NE,11.5,-,N/A,,Clear,40,2012-11-03 21:53:00
4:53 PM,43.0,35.1,74,30.14,10.0,NNE,11.5,-,N/A,,Clear,30,2012-11-03 22:53:00
5:53 PM,39.0,34.0,82,30.14,10.0,NNE,12.7,-,N/A,,Clear,30,2012-11-03 23:53:00
6:53 PM,37.0,33.1,86,30.15,10.0,NNE,11.5,-,N/A,,Clear,30,2012-11-04 00:53:00
7:53 PM,36.0,33.1,89,30.15,10.0,NNE,11.5,-,N/A,,Clear,30,2012-11-04 01:53:00
8:53 PM,36.0,33.1,89,30.13,10.0,NNE,8.1,-,N/A,,Clear,30,2012-11-04 02:53:00
9:53 PM,34.0,32.0,92,30.12,10.0,NNE,6.9,-,N/A,,Clear,30,2012-11-04 03:53:00
10:53 PM,34.0,32.0,92,30.10,10.0,NNE,5.8,-,N/A,,Clear,30,2012-11-04 04:53:00
11:53 PM,35.1,33.1,92,30.09,10.0,NE,3.5,-,N/A,,Scattered Clouds,40,2012-11-04 05:53:00